Year,Month,Day,Hour,Minute,Value (Times are PST for temperature in C)
2021,08,13,00,00,27.70
2021,08,13,00,01,27.70
2021,08,13,00,02,27.70
2021,08,13,00,03,27.70
2021,08,13,00,04,27.70
2021,08,13,00,05,27.70
2021,08,13,00,06,27.70
2021,08,13,00,07,27.70
2021,08,13,00,08,27.70
2021,08,13,00,09,27.70
2021,08,13,00,10,27.70
2021,08,13,00,11,27.70
2021,08,13,00,12,27.70
2021,08,13,00,13,27.70
2021,08,13,00,14,27.70
2021,08,13,00,15,27.70
2021,08,13,00,16,27.70
2021,08,13,00,17,27.70
2021,08,13,00,18,27.70
2021,08,13,00,19,27.70
2021,08,13,00,20,27.70
2021,08,13,00,21,27.70
2021,08,13,00,22,27.70
2021,08,13,00,23,27.70
2021,08,13,00,24,27.70
2021,08,13,00,25,27.70
2021,08,13,00,26,27.70
2021,08,13,00,27,27.70
2021,08,13,00,28,27.70
2021,08,13,00,29,27.70
2021,08,13,00,30,27.70
2021,08,13,00,31,27.70
2021,08,13,00,32,27.70
2021,08,13,00,33,27.70
2021,08,13,00,34,27.70
2021,08,13,00,35,27.70
2021,08,13,00,36,27.60
2021,08,13,00,37,27.60
2021,08,13,00,38,27.60
2021,08,13,00,39,27.60
2021,08,13,00,40,27.60
2021,08,13,00,41,27.50
2021,08,13,00,42,27.50
2021,08,13,00,43,27.50
2021,08,13,00,44,27.40
2021,08,13,00,45,27.40
2021,08,13,00,46,27.40
2021,08,13,00,47,27.30
2021,08,13,00,48,27.30
2021,08,13,00,49,27.30
2021,08,13,00,50,27.30
2021,08,13,00,51,27.20
2021,08,13,00,52,27.20
2021,08,13,00,53,27.20
2021,08,13,00,54,27.10
2021,08,13,00,55,27.10
2021,08,13,00,56,27.10
2021,08,13,00,57,27.10
2021,08,13,00,58,27.00
2021,08,13,00,59,27.00
2021,08,13,01,00,27.00
2021,08,13,01,01,26.90
2021,08,13,01,02,26.90
2021,08,13,01,03,26.90
2021,08,13,01,04,26.80
2021,08,13,01,05,26.80
2021,08,13,01,06,26.80
2021,08,13,01,07,26.80
2021,08,13,01,08,26.70
2021,08,13,01,09,26.70
2021,08,13,01,10,26.70
2021,08,13,01,11,26.60
2021,08,13,01,12,26.60
2021,08,13,01,13,26.50
2021,08,13,01,14,26.40
2021,08,13,01,15,26.30
2021,08,13,01,16,26.30
2021,08,13,01,17,26.30
2021,08,13,01,18,26.20
2021,08,13,01,19,26.20
2021,08,13,01,20,26.10
2021,08,13,01,21,26.10
2021,08,13,01,22,26.00
2021,08,13,01,23,26.00
2021,08,13,01,24,25.90
2021,08,13,01,25,25.80
2021,08,13,01,26,25.80
2021,08,13,01,27,25.70
2021,08,13,01,28,25.70
2021,08,13,01,29,25.60
2021,08,13,01,30,25.60
2021,08,13,01,31,25.50
2021,08,13,01,32,25.50
2021,08,13,01,33,25.40
2021,08,13,01,34,25.30
2021,08,13,01,35,25.30
2021,08,13,01,36,25.20
2021,08,13,01,37,25.20
2021,08,13,01,38,25.10
2021,08,13,01,39,25.10
2021,08,13,01,40,25.00
2021,08,13,01,41,25.00
2021,08,13,01,42,24.90
2021,08,13,01,43,24.90
2021,08,13,01,44,24.80
2021,08,13,01,45,24.80
2021,08,13,01,46,24.80
2021,08,13,01,47,24.70
2021,08,13,01,48,24.70
2021,08,13,01,49,24.70
2021,08,13,01,50,24.60
2021,08,13,01,51,24.60
2021,08,13,01,52,24.60
2021,08,13,01,53,24.60
2021,08,13,01,54,24.50
2021,08,13,01,55,24.50
2021,08,13,01,56,24.50
2021,08,13,01,57,24.40
2021,08,13,01,58,24.40
2021,08,13,01,59,24.40
2021,08,13,02,00,24.40
2021,08,13,02,01,24.40
2021,08,13,02,02,24.40
2021,08,13,02,03,24.40
2021,08,13,02,04,24.40
2021,08,13,02,05,24.40
2021,08,13,02,06,24.40
2021,08,13,02,07,24.40
2021,08,13,02,08,24.50
2021,08,13,02,09,24.40
2021,08,13,02,10,24.40
2021,08,13,02,11,24.50
2021,08,13,02,12,24.50
2021,08,13,02,13,24.50
2021,08,13,02,14,24.50
2021,08,13,02,15,24.50
2021,08,13,02,16,24.50
2021,08,13,02,17,24.60
2021,08,13,02,18,24.60
2021,08,13,02,19,24.60
2021,08,13,02,20,24.60
2021,08,13,02,21,24.60
2021,08,13,02,22,24.60
2021,08,13,02,23,24.60
2021,08,13,02,24,24.60
2021,08,13,02,25,24.60
2021,08,13,02,26,24.70
2021,08,13,02,27,24.70
2021,08,13,02,28,24.70
2021,08,13,02,29,24.70
2021,08,13,02,30,24.70
2021,08,13,02,31,24.70
2021,08,13,02,32,24.70
2021,08,13,02,33,24.70
2021,08,13,02,34,24.70
2021,08,13,02,35,24.80
2021,08,13,02,36,24.80
2021,08,13,02,37,24.80
2021,08,13,02,38,24.80
2021,08,13,02,39,24.80
2021,08,13,02,40,24.90
2021,08,13,02,41,24.90
2021,08,13,02,42,24.90
2021,08,13,02,43,24.90
2021,08,13,02,44,24.90
2021,08,13,02,45,24.90
2021,08,13,02,46,25.00
2021,08,13,02,47,25.00
2021,08,13,02,48,25.00
2021,08,13,02,49,25.00
2021,08,13,02,50,25.00
2021,08,13,02,51,25.00
2021,08,13,02,52,25.00
2021,08,13,02,53,25.00
2021,08,13,02,54,25.10
2021,08,13,02,55,25.10
2021,08,13,02,56,25.10
2021,08,13,02,57,25.10
2021,08,13,02,58,25.20
2021,08,13,02,59,25.20
2021,08,13,03,00,25.20
2021,08,13,03,01,25.20
2021,08,13,03,02,25.20
2021,08,13,03,03,25.20
2021,08,13,03,04,25.20
2021,08,13,03,05,25.20
2021,08,13,03,06,25.20
2021,08,13,03,07,25.20
2021,08,13,03,08,25.20
2021,08,13,03,09,25.20
2021,08,13,03,10,25.20
2021,08,13,03,11,25.20
2021,08,13,03,12,25.20
2021,08,13,03,13,25.20
2021,08,13,03,14,25.20
2021,08,13,03,15,25.20
2021,08,13,03,16,25.10
2021,08,13,03,17,25.10
2021,08,13,03,18,25.10
2021,08,13,03,19,25.10
2021,08,13,03,20,25.10
2021,08,13,03,21,25.10
2021,08,13,03,22,25.00
2021,08,13,03,23,25.00
2021,08,13,03,24,25.00
2021,08,13,03,25,25.00
2021,08,13,03,26,24.90
2021,08,13,03,27,24.90
2021,08,13,03,28,24.80
2021,08,13,03,29,24.80
2021,08,13,03,30,24.80
2021,08,13,03,31,24.80
2021,08,13,03,32,24.70
2021,08,13,03,33,24.70
2021,08,13,03,34,24.60
2021,08,13,03,35,24.60
2021,08,13,03,36,24.50
2021,08,13,03,37,24.40
2021,08,13,03,38,24.40
2021,08,13,03,39,24.30
2021,08,13,03,40,24.20
2021,08,13,03,41,24.00
2021,08,13,03,42,23.90
2021,08,13,03,43,23.70
2021,08,13,03,44,23.60
2021,08,13,03,45,23.40
2021,08,13,03,46,23.20
2021,08,13,03,47,23.00
2021,08,13,03,48,22.80
2021,08,13,03,49,22.70
2021,08,13,03,50,22.40
2021,08,13,03,51,22.20
2021,08,13,03,52,22.00
2021,08,13,03,53,21.80
2021,08,13,03,54,21.70
2021,08,13,03,55,21.60
2021,08,13,03,56,21.50
2021,08,13,03,57,21.40
2021,08,13,03,58,21.30
2021,08,13,03,59,21.20
2021,08,13,04,00,21.10
2021,08,13,04,01,21.00
2021,08,13,04,02,20.90
2021,08,13,04,03,20.80
2021,08,13,04,04,20.70
2021,08,13,04,05,20.70
2021,08,13,04,06,20.60
2021,08,13,04,07,20.50
2021,08,13,04,08,20.40
2021,08,13,04,09,20.40
2021,08,13,04,10,20.30
2021,08,13,04,11,20.30
2021,08,13,04,12,20.20
2021,08,13,04,13,20.20
2021,08,13,04,14,20.20
2021,08,13,04,15,20.20
2021,08,13,04,16,20.10
2021,08,13,04,17,20.10
2021,08,13,04,18,20.10
2021,08,13,04,19,20.10
2021,08,13,04,20,20.10
2021,08,13,04,21,20.10
2021,08,13,04,22,20.00
2021,08,13,04,23,20.00
2021,08,13,04,24,20.00
2021,08,13,04,25,20.00
2021,08,13,04,26,19.90
2021,08,13,04,27,19.90
2021,08,13,04,28,19.90
2021,08,13,04,29,19.90
2021,08,13,04,30,19.90
2021,08,13,04,31,19.80
2021,08,13,04,32,19.80
2021,08,13,04,33,19.80
2021,08,13,04,34,19.80
2021,08,13,04,35,19.80
2021,08,13,04,36,19.80
2021,08,13,04,37,19.80
2021,08,13,04,38,19.90
2021,08,13,04,39,19.90
2021,08,13,04,40,20.00
2021,08,13,04,41,20.10
2021,08,13,04,42,20.20
2021,08,13,04,43,20.30
2021,08,13,04,44,20.30
2021,08,13,04,45,20.40
2021,08,13,04,46,20.40
2021,08,13,04,47,20.40
2021,08,13,04,48,20.50
2021,08,13,04,49,20.50
2021,08,13,04,50,20.50
2021,08,13,04,51,20.60
2021,08,13,04,52,20.60
2021,08,13,04,53,20.60
2021,08,13,04,54,20.60
2021,08,13,04,55,20.70
2021,08,13,04,56,20.70
2021,08,13,04,57,20.70
2021,08,13,04,58,20.70
2021,08,13,04,59,20.70
2021,08,13,05,00,20.70
2021,08,13,05,01,20.80
2021,08,13,05,02,20.80
2021,08,13,05,03,20.80
2021,08,13,05,04,20.80
2021,08,13,05,05,20.80
2021,08,13,05,06,20.80
2021,08,13,05,07,20.90
2021,08,13,05,08,20.90
2021,08,13,05,09,20.90
2021,08,13,05,10,20.90
2021,08,13,05,11,20.90
2021,08,13,05,12,20.90
2021,08,13,05,13,20.90
2021,08,13,05,14,20.90
2021,08,13,05,15,20.90
2021,08,13,05,16,20.90
2021,08,13,05,17,20.90
2021,08,13,05,18,20.90
2021,08,13,05,19,20.90
2021,08,13,05,20,21.00
2021,08,13,05,21,21.00
2021,08,13,05,22,21.00
2021,08,13,05,23,21.00
2021,08,13,05,24,21.00
2021,08,13,05,25,21.00
2021,08,13,05,26,21.10
2021,08,13,05,27,21.10
2021,08,13,05,28,21.10
2021,08,13,05,29,21.10
2021,08,13,05,30,21.10
2021,08,13,05,31,21.10
2021,08,13,05,32,21.10
2021,08,13,05,33,21.10
2021,08,13,05,34,21.10
2021,08,13,05,35,21.10
2021,08,13,05,36,21.10
2021,08,13,05,37,21.20
2021,08,13,05,38,21.10
2021,08,13,05,39,21.10
2021,08,13,05,40,21.10
2021,08,13,05,41,21.10
2021,08,13,05,42,21.10
2021,08,13,05,43,21.10
2021,08,13,05,44,21.20
2021,08,13,05,45,21.10
2021,08,13,05,46,21.10
2021,08,13,05,47,21.10
2021,08,13,05,48,21.10
2021,08,13,05,49,21.10
2021,08,13,05,50,21.10
2021,08,13,05,51,21.10
2021,08,13,05,52,21.10
2021,08,13,05,53,21.10
2021,08,13,05,54,21.10
2021,08,13,05,55,21.20
2021,08,13,05,56,21.20
2021,08,13,05,57,21.10
2021,08,13,05,58,21.20
2021,08,13,05,59,21.20
2021,08,13,06,00,21.20
2021,08,13,06,01,21.20
2021,08,13,06,02,21.20
2021,08,13,06,03,21.20
2021,08,13,06,04,21.20
2021,08,13,06,05,21.20
2021,08,13,06,06,21.20
2021,08,13,06,07,21.20
2021,08,13,06,08,21.30
2021,08,13,06,09,21.30
2021,08,13,06,10,21.30
2021,08,13,06,11,21.30
2021,08,13,06,12,21.30
2021,08,13,06,13,21.40
2021,08,13,06,14,21.40
2021,08,13,06,15,21.40
2021,08,13,06,16,21.40
2021,08,13,06,17,21.40
2021,08,13,06,18,21.40
2021,08,13,06,19,21.40
2021,08,13,06,20,21.50
2021,08,13,06,21,21.50
2021,08,13,06,22,21.50
2021,08,13,06,23,21.50
2021,08,13,06,24,21.50
2021,08,13,06,25,21.50
2021,08,13,06,26,21.50
2021,08,13,06,27,21.50
2021,08,13,06,28,21.50
2021,08,13,06,29,21.60
2021,08,13,06,30,21.60
2021,08,13,06,31,21.60
2021,08,13,06,32,21.60
2021,08,13,06,33,21.60
2021,08,13,06,34,21.60
2021,08,13,06,35,21.60
2021,08,13,06,36,21.60
2021,08,13,06,37,21.60
2021,08,13,06,38,21.60
2021,08,13,06,39,21.60
2021,08,13,06,40,21.50
2021,08,13,06,41,21.50
2021,08,13,06,42,21.50
2021,08,13,06,43,21.50
2021,08,13,06,44,21.40
2021,08,13,06,45,21.40
2021,08,13,06,46,21.40
2021,08,13,06,47,21.40
2021,08,13,06,48,21.40
2021,08,13,06,49,21.40
2021,08,13,06,50,21.40
2021,08,13,06,51,21.30
2021,08,13,06,52,21.30
2021,08,13,06,53,21.30
2021,08,13,06,54,21.30
2021,08,13,06,55,21.30
2021,08,13,06,56,21.30
2021,08,13,06,57,21.20
2021,08,13,06,58,21.20
2021,08,13,06,59,21.20
2021,08,13,07,00,21.20
2021,08,13,07,01,21.10
2021,08,13,07,02,21.10
2021,08,13,07,03,21.10
2021,08,13,07,04,21.10
2021,08,13,07,05,21.10
2021,08,13,07,06,21.00
2021,08,13,07,07,21.00
2021,08,13,07,08,21.00
2021,08,13,07,09,21.00
2021,08,13,07,10,20.90
2021,08,13,07,11,20.90
2021,08,13,07,12,20.90
2021,08,13,07,13,20.90
2021,08,13,07,14,20.90
2021,08,13,07,15,20.90
2021,08,13,07,16,20.90
2021,08,13,07,17,20.90
2021,08,13,07,18,20.90
2021,08,13,07,19,20.90
2021,08,13,07,20,20.80
2021,08,13,07,21,20.80
2021,08,13,07,22,20.80
2021,08,13,07,23,20.80
2021,08,13,07,24,20.80
2021,08,13,07,25,20.80
2021,08,13,07,26,20.80
2021,08,13,07,27,20.80
2021,08,13,07,28,20.80
2021,08,13,07,29,20.80
2021,08,13,07,30,20.80
2021,08,13,07,31,20.80
2021,08,13,07,32,20.80
2021,08,13,07,33,20.80
2021,08,13,07,34,20.80
2021,08,13,07,35,20.90
2021,08,13,07,36,20.90
2021,08,13,07,37,20.90
2021,08,13,07,38,20.90
2021,08,13,07,39,20.90
2021,08,13,07,40,20.90
2021,08,13,07,41,20.90
2021,08,13,07,42,20.90
2021,08,13,07,43,20.90
2021,08,13,07,44,20.90
2021,08,13,07,45,20.90
2021,08,13,07,46,21.00
2021,08,13,07,47,21.00
2021,08,13,07,48,21.00
2021,08,13,07,49,21.00
2021,08,13,07,50,20.90
2021,08,13,07,51,21.00
2021,08,13,07,52,21.00
2021,08,13,07,53,21.00
2021,08,13,07,54,21.00
2021,08,13,07,55,21.00
2021,08,13,07,56,21.00
2021,08,13,07,57,21.00
2021,08,13,07,58,21.00
2021,08,13,07,59,21.00
2021,08,13,08,00,21.00
2021,08,13,08,01,21.00
2021,08,13,08,02,21.00
2021,08,13,08,03,21.00
2021,08,13,08,04,21.00
2021,08,13,08,05,21.10
2021,08,13,08,06,21.10
2021,08,13,08,07,21.10
2021,08,13,08,08,21.10
2021,08,13,08,09,21.10
2021,08,13,08,10,21.10
2021,08,13,08,11,21.10
2021,08,13,08,12,21.10
2021,08,13,08,13,21.10
2021,08,13,08,14,21.10
2021,08,13,08,15,21.20
2021,08,13,08,16,21.20
2021,08,13,08,17,21.20
2021,08,13,08,18,21.20
2021,08,13,08,19,21.20
2021,08,13,08,20,21.20
2021,08,13,08,21,21.20
2021,08,13,08,22,21.30
2021,08,13,08,23,21.30
2021,08,13,08,24,21.30
2021,08,13,08,25,21.40
2021,08,13,08,26,21.40
2021,08,13,08,27,21.50
2021,08,13,08,28,21.50
2021,08,13,08,29,21.60
2021,08,13,08,30,21.60
2021,08,13,08,31,21.70
2021,08,13,08,32,21.70
2021,08,13,08,33,21.70
2021,08,13,08,34,21.80
2021,08,13,08,35,21.80
2021,08,13,08,36,21.80
2021,08,13,08,37,21.80
2021,08,13,08,38,21.90
2021,08,13,08,39,21.90
2021,08,13,08,40,22.00
2021,08,13,08,41,22.00
2021,08,13,08,42,22.10
2021,08,13,08,43,22.10
2021,08,13,08,44,22.20
2021,08,13,08,45,22.20
2021,08,13,08,46,22.30
2021,08,13,08,47,22.30
2021,08,13,08,48,22.40
2021,08,13,08,49,22.50
2021,08,13,08,50,22.60
2021,08,13,08,51,22.60
2021,08,13,08,52,22.70
2021,08,13,08,53,22.80
2021,08,13,08,54,22.80
2021,08,13,08,55,22.90
2021,08,13,08,56,23.00
2021,08,13,08,57,23.00
2021,08,13,08,58,23.10
2021,08,13,08,59,23.20
2021,08,13,09,00,23.20
2021,08,13,09,01,23.30
2021,08,13,09,02,23.40
2021,08,13,09,03,23.40
2021,08,13,09,04,23.50
2021,08,13,09,05,23.60
2021,08,13,09,06,23.60
2021,08,13,09,07,23.60
2021,08,13,09,08,23.70
2021,08,13,09,09,23.70
2021,08,13,09,10,23.80
2021,08,13,09,11,23.80
2021,08,13,09,12,23.90
2021,08,13,09,13,24.00
2021,08,13,09,14,24.10
2021,08,13,09,15,24.20
2021,08,13,09,16,24.20
2021,08,13,09,17,24.30
2021,08,13,09,18,24.40
2021,08,13,09,19,24.50
2021,08,13,09,20,24.60
2021,08,13,09,21,24.70
2021,08,13,09,22,24.80
2021,08,13,09,23,24.90
2021,08,13,09,24,24.90
2021,08,13,09,25,25.00
2021,08,13,09,26,25.10
2021,08,13,09,27,25.10
2021,08,13,09,28,25.20
2021,08,13,09,29,25.20
2021,08,13,09,30,25.20
2021,08,13,09,31,25.20
2021,08,13,09,32,25.20
2021,08,13,09,33,25.20
2021,08,13,09,34,25.30
2021,08,13,09,35,25.30
2021,08,13,09,36,25.30
2021,08,13,09,37,25.20
2021,08,13,09,38,25.20
2021,08,13,09,39,25.20
2021,08,13,09,40,25.20
2021,08,13,09,41,25.20
2021,08,13,09,42,25.20
2021,08,13,09,43,25.20
2021,08,13,09,44,25.20
2021,08,13,09,45,25.20
2021,08,13,09,46,25.20
2021,08,13,09,47,25.30
2021,08,13,09,48,25.30
2021,08,13,09,49,25.30
2021,08,13,09,50,25.40
2021,08,13,09,51,25.40
2021,08,13,09,52,25.40
2021,08,13,09,53,25.50
2021,08,13,09,54,25.50
2021,08,13,09,55,25.60
2021,08,13,09,56,25.60
2021,08,13,09,57,25.70
2021,08,13,09,58,25.70
2021,08,13,09,59,25.80
2021,08,13,10,00,25.80
2021,08,13,10,01,25.90
2021,08,13,10,02,25.90
2021,08,13,10,03,26.00
2021,08,13,10,04,26.00
2021,08,13,10,05,26.10
2021,08,13,10,06,26.10
2021,08,13,10,07,26.20
2021,08,13,10,08,26.20
2021,08,13,10,09,26.20
2021,08,13,10,10,26.20
2021,08,13,10,11,26.30
2021,08,13,10,12,26.30
2021,08,13,10,13,26.30
2021,08,13,10,14,26.30
2021,08,13,10,15,26.40
2021,08,13,10,16,26.40
2021,08,13,10,17,26.40
2021,08,13,10,18,26.50
2021,08,13,10,19,26.50
2021,08,13,10,20,26.60
2021,08,13,10,21,26.60
2021,08,13,10,22,26.60
2021,08,13,10,23,26.70
2021,08,13,10,24,26.70
2021,08,13,10,25,26.80
2021,08,13,10,26,26.80
2021,08,13,10,27,26.90
2021,08,13,10,28,26.90
2021,08,13,10,29,26.90
2021,08,13,10,30,26.90
2021,08,13,10,31,27.00
2021,08,13,10,32,27.10
2021,08,13,10,33,27.10
2021,08,13,10,34,27.20
2021,08,13,10,35,27.20
2021,08,13,10,36,27.30
2021,08,13,10,37,27.30
2021,08,13,10,38,27.30
2021,08,13,10,39,27.30
2021,08,13,10,40,27.30
2021,08,13,10,41,27.30
2021,08,13,10,42,27.40
2021,08,13,10,43,27.40
2021,08,13,10,44,27.50
2021,08,13,10,45,27.50
2021,08,13,10,46,27.60
2021,08,13,10,47,27.70
2021,08,13,10,48,27.80
2021,08,13,10,49,27.80
2021,08,13,10,50,27.80
2021,08,13,10,51,27.80
2021,08,13,10,52,27.80
2021,08,13,10,53,27.80
2021,08,13,10,54,27.80
2021,08,13,10,55,27.80
2021,08,13,10,56,27.80
2021,08,13,10,57,27.70
2021,08,13,10,58,27.70
2021,08,13,10,59,27.60
2021,08,13,11,00,27.60
2021,08,13,11,01,27.60
2021,08,13,11,02,27.50
2021,08,13,11,03,27.50
2021,08,13,11,04,27.50
2021,08,13,11,05,27.40
2021,08,13,11,06,27.40
2021,08,13,11,07,27.40
2021,08,13,11,08,27.40
2021,08,13,11,09,27.40
2021,08,13,11,10,27.40
2021,08,13,11,11,27.40
2021,08,13,11,12,27.40
2021,08,13,11,13,27.40
2021,08,13,11,14,27.50
2021,08,13,11,15,27.50
2021,08,13,11,16,27.50
2021,08,13,11,17,27.60
2021,08,13,11,18,27.60
2021,08,13,11,19,27.60
2021,08,13,11,20,27.70
2021,08,13,11,21,27.80
2021,08,13,11,22,27.80
2021,08,13,11,23,27.80
2021,08,13,11,24,27.80
2021,08,13,11,25,27.80
2021,08,13,11,26,27.80
2021,08,13,11,27,27.80
2021,08,13,11,28,27.80
2021,08,13,11,29,27.80
2021,08,13,11,30,27.80
2021,08,13,11,31,27.80
2021,08,13,11,32,27.80
2021,08,13,11,33,27.80
2021,08,13,11,34,27.90
2021,08,13,11,35,28.00
2021,08,13,11,36,28.00
2021,08,13,11,37,28.10
2021,08,13,11,38,28.20
2021,08,13,11,39,28.20
2021,08,13,11,40,28.30
2021,08,13,11,41,28.40
2021,08,13,11,42,28.40
2021,08,13,11,43,28.40
2021,08,13,11,44,28.40
2021,08,13,11,45,28.30
2021,08,13,11,46,28.30
2021,08,13,11,47,28.30
2021,08,13,11,48,28.30
2021,08,13,11,49,28.30
2021,08,13,11,50,28.30
2021,08,13,11,51,28.30
2021,08,13,11,52,28.30
2021,08,13,11,53,28.40
2021,08,13,11,54,28.40
2021,08,13,11,55,28.40
2021,08,13,11,56,28.40
2021,08,13,11,57,28.50
2021,08,13,11,58,28.50
2021,08,13,11,59,28.50
2021,08,13,12,00,28.60
2021,08,13,12,01,28.60
2021,08,13,12,02,28.70
2021,08,13,12,03,28.70
2021,08,13,12,04,28.70
2021,08,13,12,05,28.70
2021,08,13,12,06,28.70
2021,08,13,12,07,28.70
2021,08,13,12,08,28.70
2021,08,13,12,09,28.60
2021,08,13,12,10,28.60
2021,08,13,12,11,28.50
2021,08,13,12,12,28.50
2021,08,13,12,13,28.40
2021,08,13,12,14,28.40
2021,08,13,12,15,28.40
2021,08,13,12,16,28.50
2021,08,13,12,17,28.50
2021,08,13,12,18,28.60
2021,08,13,12,19,28.70
2021,08,13,12,20,28.70
2021,08,13,12,21,28.80
2021,08,13,12,22,28.80
2021,08,13,12,23,28.80
2021,08,13,12,24,28.70
2021,08,13,12,25,28.70
2021,08,13,12,26,28.70
2021,08,13,12,27,28.60
2021,08,13,12,28,28.60
2021,08,13,12,29,28.60
2021,08,13,12,30,28.50
2021,08,13,12,31,28.50
2021,08,13,12,32,28.50
2021,08,13,12,33,28.40
2021,08,13,12,34,28.40
2021,08,13,12,35,28.40
2021,08,13,12,36,28.30
2021,08,13,12,37,28.30
2021,08,13,12,38,28.30
2021,08,13,12,39,28.20
2021,08,13,12,40,28.20
2021,08,13,12,41,28.20
2021,08,13,12,42,28.20
2021,08,13,12,43,28.20
2021,08,13,12,44,28.30
2021,08,13,12,45,28.40
2021,08,13,12,46,28.60
2021,08,13,12,47,28.70
2021,08,13,12,48,28.90
2021,08,13,12,49,28.90
2021,08,13,12,50,29.00
2021,08,13,12,51,29.10
2021,08,13,12,52,29.20
2021,08,13,12,53,29.40
2021,08,13,12,54,29.40
2021,08,13,12,55,29.40
2021,08,13,12,56,29.50
2021,08,13,12,57,29.50
2021,08,13,12,58,29.60
2021,08,13,12,59,29.60
2021,08,13,13,00,29.60
2021,08,13,13,01,29.60
2021,08,13,13,02,29.50
2021,08,13,13,03,29.50
2021,08,13,13,04,29.40
2021,08,13,13,05,29.30
2021,08,13,13,06,29.40
2021,08,13,13,07,29.40
2021,08,13,13,08,29.30
2021,08,13,13,09,29.30
2021,08,13,13,10,29.40
2021,08,13,13,11,29.40
2021,08,13,13,12,29.40
2021,08,13,13,13,29.50
2021,08,13,13,14,29.50
2021,08,13,13,15,29.60
2021,08,13,13,16,29.60
2021,08,13,13,17,29.70
2021,08,13,13,18,29.80
2021,08,13,13,19,29.80
2021,08,13,13,20,29.70
2021,08,13,13,21,29.70
2021,08,13,13,22,29.70
2021,08,13,13,23,29.70
2021,08,13,13,24,29.70
2021,08,13,13,25,29.60
2021,08,13,13,26,29.60
2021,08,13,13,27,29.70
2021,08,13,13,28,29.80
2021,08,13,13,29,29.80
2021,08,13,13,30,29.80
2021,08,13,13,31,29.80
2021,08,13,13,32,29.80
2021,08,13,13,33,29.80
2021,08,13,13,34,30.00
2021,08,13,13,35,30.00
2021,08,13,13,36,30.10
2021,08,13,13,37,30.10
2021,08,13,13,38,30.00
2021,08,13,13,39,30.00
2021,08,13,13,40,30.00
2021,08,13,13,41,30.00
2021,08,13,13,42,30.10
2021,08,13,13,43,30.10
2021,08,13,13,44,30.10
2021,08,13,13,45,30.20
2021,08,13,13,46,30.20
2021,08,13,13,47,30.20
2021,08,13,13,48,30.20
2021,08,13,13,49,30.20
2021,08,13,13,50,30.20
2021,08,13,13,51,30.10
2021,08,13,13,52,30.10
2021,08,13,13,53,30.00
2021,08,13,13,54,30.10
2021,08,13,13,55,30.10
2021,08,13,13,56,30.20
2021,08,13,13,57,30.20
2021,08,13,13,58,30.20
2021,08,13,13,59,30.30
2021,08,13,14,00,30.40
2021,08,13,14,01,30.40
2021,08,13,14,02,30.40
2021,08,13,14,03,30.50
2021,08,13,14,04,30.50
2021,08,13,14,05,30.60
2021,08,13,14,06,30.60
2021,08,13,14,07,30.70
2021,08,13,14,08,30.70
2021,08,13,14,09,30.80
2021,08,13,14,10,30.90
2021,08,13,14,11,30.90
2021,08,13,14,12,30.90
2021,08,13,14,13,30.70
2021,08,13,14,14,30.60
2021,08,13,14,15,30.50
2021,08,13,14,16,30.40
2021,08,13,14,17,30.30
2021,08,13,14,18,30.20
2021,08,13,14,19,30.10
2021,08,13,14,20,30.10
2021,08,13,14,21,30.10
2021,08,13,14,22,30.10
2021,08,13,14,23,30.30
2021,08,13,14,24,30.30
2021,08,13,14,25,30.30
2021,08,13,14,26,30.30
2021,08,13,14,27,30.40
2021,08,13,14,28,30.50
2021,08,13,14,29,30.50
2021,08,13,14,30,30.60
2021,08,13,14,31,30.70
2021,08,13,14,32,30.60
2021,08,13,14,33,30.60
2021,08,13,14,34,30.60
2021,08,13,14,35,30.70
2021,08,13,14,36,30.80
2021,08,13,14,37,30.80
2021,08,13,14,38,30.80
2021,08,13,14,39,30.90
2021,08,13,14,40,30.90
2021,08,13,14,41,30.90
2021,08,13,14,42,30.90
2021,08,13,14,43,30.90
2021,08,13,14,44,30.90
2021,08,13,14,45,30.90
2021,08,13,14,46,30.90
2021,08,13,14,47,30.90
2021,08,13,14,48,30.90
2021,08,13,14,49,30.90
2021,08,13,14,50,30.80
2021,08,13,14,51,30.60
2021,08,13,14,52,30.40
2021,08,13,14,53,30.30
2021,08,13,14,54,30.20
2021,08,13,14,55,30.10
2021,08,13,14,56,30.00
2021,08,13,14,57,30.10
2021,08,13,14,58,30.10
2021,08,13,14,59,30.10
2021,08,13,15,00,30.10
2021,08,13,15,01,30.00
2021,08,13,15,02,30.00
2021,08,13,15,03,29.90
2021,08,13,15,04,29.90
2021,08,13,15,05,29.90
2021,08,13,15,06,29.90
2021,08,13,15,07,30.00
2021,08,13,15,08,30.20
2021,08,13,15,09,30.30
2021,08,13,15,10,30.30
2021,08,13,15,11,30.40
2021,08,13,15,12,30.60
2021,08,13,15,13,30.80
2021,08,13,15,14,30.80
2021,08,13,15,15,30.90
2021,08,13,15,16,30.90
2021,08,13,15,17,30.80
2021,08,13,15,18,30.80
2021,08,13,15,19,30.70
2021,08,13,15,20,30.70
2021,08,13,15,21,30.60
2021,08,13,15,22,30.70
2021,08,13,15,23,30.70
2021,08,13,15,24,30.70
2021,08,13,15,25,30.70
2021,08,13,15,26,30.70
2021,08,13,15,27,30.70
2021,08,13,15,28,30.70
2021,08,13,15,29,30.80
2021,08,13,15,30,30.80
2021,08,13,15,31,30.80
2021,08,13,15,32,30.80
2021,08,13,15,33,30.80
2021,08,13,15,34,30.70
2021,08,13,15,35,30.70
2021,08,13,15,36,30.60
2021,08,13,15,37,30.60
2021,08,13,15,38,30.50
2021,08,13,15,39,30.40
2021,08,13,15,40,30.40
2021,08,13,15,41,30.30
2021,08,13,15,42,30.30
2021,08,13,15,43,30.20
2021,08,13,15,44,30.20
2021,08,13,15,45,30.10
2021,08,13,15,46,30.10
2021,08,13,15,47,30.10
2021,08,13,15,48,30.10
2021,08,13,15,49,30.20
2021,08,13,15,50,30.20
2021,08,13,15,51,30.20
2021,08,13,15,52,30.20
2021,08,13,15,53,30.20
2021,08,13,15,54,30.30
2021,08,13,15,55,30.30
2021,08,13,15,56,30.30
2021,08,13,15,57,30.40
2021,08,13,15,58,30.40
2021,08,13,15,59,30.40
2021,08,13,16,00,30.30
2021,08,13,16,01,30.30
2021,08,13,16,02,30.30
2021,08,13,16,03,30.20
2021,08,13,16,04,30.20
2021,08,13,16,05,30.20
2021,08,13,16,06,30.20
2021,08,13,16,07,30.20
2021,08,13,16,08,30.10
2021,08,13,16,09,30.10
2021,08,13,16,10,30.10
2021,08,13,16,11,30.00
2021,08,13,16,12,30.00
2021,08,13,16,13,29.90
2021,08,13,16,14,29.90
2021,08,13,16,15,29.80
2021,08,13,16,16,29.80
2021,08,13,16,17,29.80
2021,08,13,16,18,29.80
2021,08,13,16,19,29.70
2021,08,13,16,20,29.70
2021,08,13,16,21,29.60
2021,08,13,16,22,29.60
2021,08,13,16,23,29.60
2021,08,13,16,24,29.50
2021,08,13,16,25,29.50
2021,08,13,16,26,29.50
2021,08,13,16,27,29.50
2021,08,13,16,28,29.50
2021,08,13,16,29,29.50
2021,08,13,16,30,29.50
2021,08,13,16,31,29.50
2021,08,13,16,32,29.50
2021,08,13,16,33,29.60
2021,08,13,16,34,29.60
2021,08,13,16,35,29.60
2021,08,13,16,36,29.60
2021,08,13,16,37,29.60
2021,08,13,16,38,29.60
2021,08,13,16,39,29.60
2021,08,13,16,40,29.60
2021,08,13,16,41,29.60
2021,08,13,16,42,29.60
2021,08,13,16,43,29.50
2021,08,13,16,44,29.50
2021,08,13,16,45,29.60
2021,08,13,16,46,29.60
2021,08,13,16,47,29.60
2021,08,13,16,48,29.60
2021,08,13,16,49,29.70
2021,08,13,16,50,29.70
2021,08,13,16,51,29.80
2021,08,13,16,52,29.80
2021,08,13,16,53,29.90
2021,08,13,16,54,30.00
2021,08,13,16,55,30.00
2021,08,13,16,56,30.10
2021,08,13,16,57,30.10
2021,08,13,16,58,30.10
2021,08,13,16,59,30.10
2021,08,13,17,00,30.10
2021,08,13,17,01,30.10
2021,08,13,17,02,30.10
2021,08,13,17,03,30.10
2021,08,13,17,04,30.10
2021,08,13,17,05,30.10
2021,08,13,17,06,30.20
2021,08,13,17,07,30.20
2021,08,13,17,08,30.20
2021,08,13,17,09,30.30
2021,08,13,17,10,30.30
2021,08,13,17,11,30.30
2021,08,13,17,12,30.30
2021,08,13,17,13,30.20
2021,08,13,17,14,30.20
2021,08,13,17,15,30.20
2021,08,13,17,16,30.20
2021,08,13,17,17,30.20
2021,08,13,17,18,30.20
2021,08,13,17,19,30.10